• In Deutschland
  • Länderverzeichnis
  • Für 7 Tage
  • Wassertemperatur
  • Satellitenkarten
  • Wetterkarte
  • Widgets
  • user-avatar
    Anmelden

    Stündliche Wetter Zülpich

    Heute, 17 Dezember, Sonntag

    Zeit Temperatur Niederschläge Wind Luftdruck Luftfeuchtigkeit
    00:00 -1°C° 0 mm 2 m/S 749 mmHg 92%
    01:00 -1°C° 0,1 mm 3 m/S 749 mmHg 92%
    02:00 -1°C° 0,1 mm 3 m/S 749 mmHg 92%
    03:00 -1°C° 0,1 mm 3 m/S 750 mmHg 91%
    04:00 -1°C° 0 mm 3 m/S 750 mmHg 92%
    05:00 -1°C° 0 mm 3 m/S 750 mmHg 92%
    06:00 -1°C° 0 mm 3 m/S 751 mmHg 93%
    07:00 -1°C° 0 mm 3 m/S 751 mmHg 93%
    08:00 0°C° 0 mm 3 m/S 751 mmHg 92%
    09:00 0°C° 0 mm 3 m/S 752 mmHg 91%
    10:00 +1°C° 0 mm 3 m/S 752 mmHg 89%
    11:00 +2°C° 0 mm 3 m/S 752 mmHg 87%
    12:00 +2°C° 0 mm 3 m/S 753 mmHg 85%
    13:00 +3°C° 0 mm 2 m/S 753 mmHg 87%
    14:00 +3°C° 0 mm 2 m/S 753 mmHg 89%
    15:00 +2°C° 0 mm 2 m/S 753 mmHg 91%
    16:00 +2°C° 0 mm 2 m/S 753 mmHg 91%
    17:00 +2°C° 0 mm 2 m/S 753 mmHg 91%
    18:00 +1°C° 0 mm 3 m/S 753 mmHg 92%
    19:00 0°C° 0 mm 3 m/S 753 mmHg 89%
    20:00 0°C° 0 mm 3 m/S 753 mmHg 87%
    21:00 -1°C° 0 mm 4 m/S 753 mmHg 84%
    22:00 -1°C° 0,4 mm 4 m/S 752 mmHg 84%
    23:00 0°C° 0,4 mm 5 m/S 752 mmHg 84%

    Morgen, 18 Dezember, Montag

    Zeit Temperatur Niederschläge Wind Luftdruck Luftfeuchtigkeit
    00:00 0°C° 0,4 mm 5 m/S 751 mmHg 85%
    01:00 0°C° 0,9 mm 5 m/S 750 mmHg 87%
    02:00 0°C° 0,9 mm 5 m/S 750 mmHg 89%
    03:00 +1°C° 0,9 mm 5 m/S 749 mmHg 91%
    04:00 +1°C° 0,4 mm 4 m/S 749 mmHg 93%
    05:00 +3°C° 0,4 mm 4 m/S 749 mmHg 95%
    06:00 +3°C° 0,4 mm 3 m/S 749 mmHg 97%
    07:00 +3°C° 0,2 mm 4 m/S 749 mmHg 95%
    08:00 +3°C° 0,2 mm 4 m/S 750 mmHg 94%
    09:00 +3°C° 0,2 mm 4 m/S 751 mmHg 93%
    10:00 +3°C° 0 mm 5 m/S 751 mmHg 90%
    11:00 +3°C° 0 mm 5 m/S 751 mmHg 86%
    12:00 +3°C° 0 mm 5 m/S 752 mmHg 83%
    13:00 +4°C° 0,1 mm 4 m/S 752 mmHg 85%
    14:00 +4°C° 0,1 mm 4 m/S 753 mmHg 88%
    15:00 +3°C° 0,1 mm 3 m/S 753 mmHg 90%
    16:00 +3°C° 0,1 mm 3 m/S 754 mmHg 91%
    17:00 +3°C° 0,1 mm 3 m/S 755 mmHg 93%
    18:00 +2°C° 0,1 mm 3 m/S 755 mmHg 94%
    19:00 +3°C° 0 mm 2 m/S 756 mmHg 94%
    20:00 +3°C° 0 mm 2 m/S 756 mmHg 95%
    21:00 +2°C° 0 mm 2 m/S 757 mmHg 95%
    22:00 +2°C° 0 mm 2 m/S 757 mmHg 95%
    23:00 +3°C° 0 mm 1 m/S 758 mmHg 95%

    übermorgen, 19 Dezember, Dienstag

    Zeit Temperatur Niederschläge Wind Luftdruck Luftfeuchtigkeit
    00:00 +2°C° 0 mm 1 m/S 758 mmHg 95%
    01:00 +2°C° 0 mm 1 m/S 758 mmHg 95%
    02:00 +2°C° 0 mm 1 m/S 759 mmHg 95%
    03:00 +2°C° 0 mm 1 m/S 759 mmHg 95%
    04:00 +2°C° 0 mm 1 m/S 759 mmHg 96%
    05:00 +2°C° 0 mm 1 m/S 759 mmHg 96%
    06:00 +1°C° 0 mm 1 m/S 760 mmHg 96%
    07:00 +2°C° 0 mm 1 m/S 760 mmHg 96%
    08:00 +2°C° 0 mm 1 m/S 760 mmHg 95%
    09:00 +3°C° 0 mm 1 m/S 761 mmHg 95%
    10:00 +3°C° 0 mm 2 m/S 761 mmHg 94%
    11:00 +3°C° 0 mm 2 m/S 761 mmHg 93%
    12:00 +4°C° 0 mm 2 m/S 761 mmHg 92%
    13:00 +4°C° 0 mm 2 m/S 761 mmHg 93%
    14:00 +4°C° 0 mm 2 m/S 760 mmHg 94%
    15:00 +4°C° 0 mm 2 m/S 760 mmHg 95%
    16:00 +4°C° 0 mm 2 m/S 760 mmHg 95%
    17:00 +2°C° 0 mm 3 m/S 760 mmHg 95%
    18:00 +2°C° 0 mm 3 m/S 760 mmHg 95%
    19:00 +2°C° 0 mm 3 m/S 760 mmHg 93%
    20:00 +2°C° 0 mm 3 m/S 760 mmHg 92%
    21:00 +2°C° 0 mm 3 m/S 760 mmHg 91%
    22:00 +2°C° 0 mm 3 m/S 759 mmHg 92%
    23:00 +2°C° 0 mm 3 m/S 759 mmHg 93%

    20 Dezember, Mittwoch

    Zeit Temperatur Niederschläge Wind Luftdruck Luftfeuchtigkeit
    00:00 +1°C° 0 mm 4 m/S 759 mmHg 93%
    01:00 +1°C° 0 mm 4 m/S 759 mmHg 94%
    02:00 +3°C° 0 mm 3 m/S 759 mmHg 95%
    03:00 +3°C° 0 mm 3 m/S 758 mmHg 96%
    04:00 +3°C° 0,1 mm 3 m/S 758 mmHg 97%
    05:00 +3°C° 0,1 mm 3 m/S 758 mmHg 97%
    06:00 +4°C° 0,1 mm 3 m/S 758 mmHg 97%
    07:00 +4°C° 0,1 mm 3 m/S 758 mmHg 97%
    08:00 +5°C° 0,1 mm 2 m/S 758 mmHg 97%
    09:00 +5°C° 0,1 mm 2 m/S 759 mmHg 97%
    10:00 +6°C° 0,1 mm 2 m/S 758 mmHg 97%
    11:00 +6°C° 0,1 mm 2 m/S 758 mmHg 97%
    12:00 +7°C° 0,1 mm 2 m/S 758 mmHg 97%
    13:00 +7°C° 0 mm 2 m/S 758 mmHg 97%
    14:00 +7°C° 0 mm 2 m/S 758 mmHg 97%
    15:00 +7°C° 0 mm 2 m/S 758 mmHg 98%
    16:00 +7°C° 0,1 mm 2 m/S 758 mmHg 98%
    17:00 +7°C° 0,1 mm 2 m/S 759 mmHg 98%
    18:00 +7°C° 0,1 mm 2 m/S 759 mmHg 98%
    19:00 +7°C° 0 mm 2 m/S 759 mmHg 98%
    20:00 +7°C° 0 mm 2 m/S 759 mmHg 97%
    21:00 +8°C° 0 mm 2 m/S 759 mmHg 97%
    22:00 +8°C° 0 mm 3 m/S 759 mmHg 97%
    23:00 +8°C° 0 mm 3 m/S 759 mmHg 97%

    21 Dezember, Donnerstag

    Zeit Temperatur Niederschläge Wind Luftdruck Luftfeuchtigkeit
    00:00 +8°C° 0 mm 3 m/S 759 mmHg 97%
    01:00 +8°C° 0,1 mm 3 m/S 759 mmHg 96%
    02:00 +8°C° 0,1 mm 3 m/S 759 mmHg 96%
    03:00 +7°C° 0,1 mm 4 m/S 758 mmHg 96%
    04:00 +7°C° 0,4 mm 4 m/S 758 mmHg 96%
    05:00 +8°C° 0,4 mm 3 m/S 758 mmHg 96%
    06:00 +8°C° 0,4 mm 3 m/S 758 mmHg 96%
    07:00 +8°C° 0,6 mm 3 m/S 758 mmHg 96%
    08:00 +8°C° 0,6 mm 3 m/S 758 mmHg 96%
    09:00 +9°C° 0,6 mm 3 m/S 758 mmHg 96%
    10:00 +8°C° 0,8 mm 4 m/S 758 mmHg 95%
    11:00 +8°C° 0,8 mm 4 m/S 758 mmHg 94%
    12:00 +8°C° 0,8 mm 4 m/S 757 mmHg 93%
    13:00 +8°C° 0,1 mm 4 m/S 757 mmHg 92%
    14:00 +8°C° 0,1 mm 5 m/S 757 mmHg 91%
    15:00 +8°C° 0,1 mm 5 m/S 756 mmHg 90%
    16:00 +8°C° 0,1 mm 5 m/S 756 mmHg 90%
    17:00 +8°C° 0,1 mm 5 m/S 756 mmHg 90%
    18:00 +8°C° 0,1 mm 5 m/S 756 mmHg 90%
    19:00 +8°C° 0,1 mm 5 m/S 755 mmHg 90%
    20:00 +8°C° 0,1 mm 5 m/S 755 mmHg 89%
    21:00 +8°C° 0,1 mm 5 m/S 755 mmHg 89%
    22:00 +8°C° 0,5 mm 5 m/S 755 mmHg 89%
    23:00 +8°C° 0,5 mm 6 m/S 754 mmHg 90%

    22 Dezember, Freitag

    Zeit Temperatur Niederschläge Wind Luftdruck Luftfeuchtigkeit
    00:00 +8°C° 0,5 mm 6 m/S 754 mmHg 90%
    01:00 +7°C° 1,2 mm 6 m/S 754 mmHg 89%
    02:00 +5°C° 1,2 mm 6 m/S 755 mmHg 88%
    03:00 +4°C° 1,2 mm 6 m/S 755 mmHg 88%
    04:00 +5°C° 0,2 mm 5 m/S 756 mmHg 88%
    05:00 +3°C° 0,2 mm 5 m/S 757 mmHg 88%
    06:00 +4°C° 0,2 mm 4 m/S 758 mmHg 89%
    07:00 +4°C° 0,1 mm 4 m/S 759 mmHg 88%
    08:00 +4°C° 0,1 mm 4 m/S 760 mmHg 87%
    09:00 +4°C° 0,1 mm 4 m/S 761 mmHg 86%
    10:00 +4°C° 0 mm 4 m/S 761 mmHg 84%
    11:00 +4°C° 0 mm 4 m/S 761 mmHg 82%
    12:00 +5°C° 0 mm 4 m/S 761 mmHg 79%
    13:00 +5°C° 0 mm 4 m/S 761 mmHg 80%
    14:00 +4°C° 0 mm 4 m/S 761 mmHg 81%
    15:00 +4°C° 0 mm 3 m/S 761 mmHg 82%
    16:00 +4°C° 0 mm 4 m/S 761 mmHg 84%
    17:00 +4°C° 0 mm 4 m/S 761 mmHg 86%
    18:00 +3°C° 0 mm 4 m/S 761 mmHg 88%
    19:00 +2°C° 0 mm 5 m/S 761 mmHg 87%
    20:00 +2°C° 0 mm 5 m/S 761 mmHg 86%
    21:00 +2°C° 0 mm 6 m/S 760 mmHg 86%
    22:00 +3°C° 0,1 mm 6 m/S 760 mmHg 86%
    23:00 +3°C° 0,1 mm 6 m/S 760 mmHg 87%
    Mehr zeigen

    XHprof extension not loaded